Tracking 28790 objects as of 19-Apr-2024
HD Live streaming from Space Station
objects crossing your sky now

SL-6 R/B(2)

Track SL-6 R/B(2) now!


NORAD ID: 11079
Int'l Code: 1978-095E
Perigee: 720.0 km
Apogee: 35,945.7 km
Inclination: 63.7 °
Period: 644.0 minutes
Semi major axis: 24703 km
RCS: 6.8174 m2 (large)
Launch date: October 13, 1978
Source: Commonwealth of Independent States (former USSR) (CIS)
Launch site: PLESETSK MISSILE AND SPACE COMPLEX (PKMTR)

Note: This is a ROCKET BODY
Your satellite tracking list
Your tracking list is empty




NASA's NSSDC Master Catalog

Two Line Element Set (TLE):
1 11079U 78095E   24109.02987615  .00000036  00000-0  74916-3 0  9990
2 11079  63.7256  42.9763 7129604 277.2266  13.6734  2.23591796 74897
Source of the keplerian elements: AFSPC